DELTA 4 R/B

基本信息
目录编号:
37754
目录名称:
DELTA 4 R/B
国际标识:
2011-036B
轨道中心:
EARTH
物体状态:
在轨
发射日期:
2011-07-16 UTC
国别:
美国 (US)
轨道信息
数据来源: 国际轨道数据
星历时间: 2026-07-14T03:14:53+0800
半长轴: 27517.415km
偏心率: 0.0366723
轨道倾角: 57.022°
近地点辐角: 127.458°
升交点赤经: 353.625°
平近点角: 234.293°
近地点: 20130.151km
远地点: 22148.405km
周期: 757.131分钟
每日圈数: 1.901916
详细信息
发射场:
AFETR
轨道高度:
MEO
数据来源:
AOE Integration Group
参考系:
TEME
时间系统:
UTC
历元类型:
SGP4
2D轨道图
3D轨道图
轨道高度分析图
轨道倾角分析图
轨道综合分析图
查看轨道综合分析图